Regional Weather Roundup
Issued by NWS

Home | Current Version | Previous Version | Graphics & Text | Print | Product List | Glossary On
Versions: 1 2 3 4 5 6 7 8 9 10 11 12 13 14 15 16 17 18 19 20 21 22 23 24 25 26 27 28 29 30 31 32 33 34 35 36 37 38 39 40 41 42 43 44 45 46 47 48 49 50
000
ASUS43 KLSX 221957
RWRMO

WEATHER SUMMARY FOR MISSOURI
NATIONAL WEATHER SERVICE SPRINGFIELD MO
300 PM CDT SUN APR 22 2018

NOTE: "FAIR" INDICATES FEW OR NO CLOUDS BELOW 12,000 FEET WITH NO
       SIGNIFICANT WEATHER AND/OR OBSTRUCTIONS TO VISIBILITY.
       CURRENT SKY AND/OR WEATHER CONDITIONS ARE NOT AVAILABLE FOR
       CHILLICOTHE AND FARMINGTON.

MOZ001>031-035>038-043-044-053-054-222100-
...NORTHERN AND WESTERN MISSOURI...

CITY           SKY/WX    TMP DP  RH WIND       PRES   REMARKS
KANSAS CTY INT CLOUDY    61  41  47 NE15      30.10S
LEE`S SUMMIT   CLOUDY    58  45  62 NE14G21   30.09F
ST JOSEPH      CLOUDY    64  42  44 NE9       30.12F
CHILLICOTHE      N/A     66  42  41 E12G21    30.11F

$$
MOZ066>068-077>081-088>096-101>105-222100-
...SOUTHWEST MISSOURI...

CITY           SKY/WX    TMP DP  RH WIND       PRES   REMARKS
SPRINGFIELD    CLOUDY    58  54  86 NE16      29.94F
JOPLIN         CLOUDY    57  55  93 NE9       29.97F
BRANSON        PTSUNNY   59  50  72 CALM      29.94F

$$
MOZ032>034-039>042-045>050-055>058-069>072-222100-
...CENTRAL MISSOURI...

CITY           SKY/WX    TMP DP  RH WIND       PRES   REMARKS
COLUMBIA       NOT AVBL
JEFFERSON CITY LGT RAIN  61  48  62 E10       30.06S
ROLLA          LGT RAIN  54  51  90 NE10      30.04S FOG
SEDALIA        CLOUDY    60  50  69 NE10      30.07F
WARRENSBURG    CLOUDY    55  46  71 NE9G16    30.08F

$$
MOZ051-052-059>065-222100-
...EAST CENTRAL MISSOURI...

CITY           SKY/WX    TMP DP  RH WIND       PRES   REMARKS
ST LOUIS INTL  CLOUDY    58  39  49 NE14      30.08F

$$
MOZ072>076-082>087-097>100-106>115-222100-
...SOUTH CENTRAL AND SOUTHEAST MISSOURI...

CITY           SKY/WX    TMP DP  RH WIND       PRES   REMARKS
CAPE GIRARDEAU LGT RAIN  56  53  90 E16G23    29.99F
POPLAR BLUFF   CLOUDY    56  55  97 E16G26    29.92F
WEST PLAINS    RAIN      53  51  93 W5        29.95F FOG

$$



USA.gov is the U.S. government's official web portal to all federal, state and local government web resources and services.